User: anonymous   Login
Location: Belvedere Heights
(33.9836°N, 117.3109°W)
Time: 17:00:38
(UTC+00:00)
Language:

CAS-4B - Orbit

View from above orbital plane
View from above orbital plane
View from above satellite
View from above satellite

Ground track
Ground track

The orbit data is extracted from the following two-line orbital elements,

1 42759U 17034B   24148.97726432  .00014052  00000-0  51816-3 0  9997
2 42759  43.0199 340.7250 0013012 220.6528 139.3353 15.27575710384314
Epoch (UTC): 27 May 2024 23:27:15
Eccentricity: 0.0013012
inclination: 43.0199°
perigee height: 474 km
apogee height: 492 km
right ascension of ascending node: 340.7250°
argument of perigee: 220.6528°
revolutions per day: 15.27575710
mean anomaly at epoch: 139.3353°
orbit number at epoch: 38431

The dashed part of the orbit path shows where the satellite is in the earth's shadow,  

DLR